Traverse City, MI

11:30 AM EDT on July 22, 2017 (GMT -0400)
Cherry Capital

Weather History for KTVC - October, 2011

Change the Weather History Date:

Monday, October 3, 2011

  Actual Average Record
Temperature  
Mean Temperature 52 °F 53 °F  
Max Temperature 66 °F 63 °F 87 °F (1922)
Min Temperature 37 °F 43 °F 27 °F (1974)
Degree Days  
Heating Degree Days 13 12  
Month to date heating degree days 53 36  
Since 1 July heating degree days 240 298  
Cooling Degree Days 0 0  
Month to date cooling degree days 0 0  
Year to date cooling degree days 644 407  
Moisture  
Dew Point 41 °F    
Average Humidity 69    
Maximum Humidity 93    
Minimum Humidity 44    
Precipitation  
Precipitation 0.00 in 0.11 in 2.01 in (2006)
Month to date precipitation 0.00 0.33  
Year to date precipitation 19.43 24.97  
Sea Level Pressure  
Sea Level Pressure 30.20 in    
Wind  
Wind Speed 2 mph (NNE)    
Max Wind Speed 9 mph    
Max Gust Speed 14 mph    
Visibility 9 miles    
Events      
T = Trace of Precipitation, MM = Missing Value Source: NWS Daily Summary

Daily Weather History Graph

Daily Weather History Graph

Search for Another Location

Airport or City:

Trip Planner

Search our weather history database for the weather conditions in past years. The results will help you decide how hot, cold, wet, or windy it might be!

Date:

Astronomy

Oct. 03, 2011 Rise Set
Actual Time 7:42 AM EDT 7:19 PM EDT
Civil Twilight 7:13 AM EDT 7:48 PM EDT
Nautical Twilight 6:39 AM EDT 8:22 PM EDT
Astronomical Twilight 6:05 AM EDT 8:56 PM EDT
Moon 2:53 PM EDT (10/3) No Moon Set
Length of Visible Light 12h 35m
Length of Day
11h 37m
Waxing Crescent, 45% of the Moon is Illuminated
Oct 3
Waxing Crescent
Oct 3
First Quarter
Oct 11
Full
Oct 19
Last Quarter
Oct 26
New

Hourly Weather History & Observations

Time (EDT) Temp. Windchill Dew Point Humidity Pressure Visibility Wind Dir Wind Speed Gust Speed Precip Events Conditions
12:53 AM 41.0 °F - 37.9 °F 89% 30.16 in 10.0 mi Calm Calm - N/A   Clear
1:53 AM 39.0 °F - 37.0 °F 93% 30.15 in 10.0 mi Calm Calm - N/A   Clear
2:53 AM 39.0 °F - 37.0 °F 93% 30.16 in 10.0 mi Calm Calm - N/A   Clear
3:53 AM 39.0 °F - 37.0 °F 93% 30.17 in 10.0 mi Calm Calm - N/A   Clear
4:53 AM 37.0 °F - 35.1 °F 93% 30.17 in 10.0 mi Calm Calm - N/A   Clear
5:53 AM 37.9 °F - 36.0 °F 93% 30.18 in 10.0 mi Calm Calm - N/A   Clear
6:53 AM 37.9 °F - 36.0 °F 93% 30.19 in 10.0 mi Calm Calm - N/A   Partly Cloudy
7:53 AM 37.9 °F 35.5 °F 36.0 °F 93% 30.22 in 7.0 mi West 3.5 mph - N/A   Mostly Cloudy
8:17 AM 37.4 °F - 37.4 °F 100% 30.20 in 5.0 mi Calm Calm - N/A   Scattered Clouds
8:53 AM 41.0 °F - 39.0 °F 93% 30.22 in 5.0 mi Calm Calm - N/A   Scattered Clouds
9:53 AM 51.1 °F - 46.9 °F 86% 30.24 in 6.0 mi Calm Calm - N/A   Scattered Clouds
10:53 AM 55.9 °F - 48.0 °F 75% 30.24 in 10.0 mi NNE 4.6 mph - N/A   Scattered Clouds
11:53 AM 57.0 °F - 46.0 °F 67% 30.24 in 10.0 mi NE 5.8 mph - N/A   Partly Cloudy
12:53 PM 61.0 °F - 41.0 °F 48% 30.23 in 10.0 mi NNE 5.8 mph - N/A   Clear
1:53 PM 62.6 °F - 44.6 °F 52% 30.21 in 10.0 mi NE 8.1 mph - N/A   Clear
2:53 PM 64.0 °F - 44.1 °F 48% 30.20 in 10.0 mi NNE 5.8 mph - N/A   Clear
3:53 PM 64.9 °F - 42.1 °F 43% 30.20 in 10.0 mi NNW 4.6 mph - N/A   Clear
4:53 PM 64.0 °F - 42.1 °F 45% 30.20 in 10.0 mi NNE 6.9 mph - N/A   Clear
5:53 PM 62.6 °F - 42.8 °F 48% 30.19 in 10.0 mi NNE 5.8 mph - N/A   Clear
6:53 PM 61.0 °F - 42.1 °F 50% 30.20 in 10.0 mi Calm Calm - N/A   Clear
7:53 PM 52.0 °F - 44.1 °F 74% 30.21 in 10.0 mi Calm Calm - N/A   Clear
8:53 PM 50.0 °F - 44.6 °F 82% 30.21 in 10.0 mi Calm Calm - N/A   Clear
9:53 PM 48.0 °F - 44.1 °F 86% 30.22 in 10.0 mi Calm Calm - N/A   Scattered Clouds
10:53 PM 46.9 °F - 43.0 °F 86% 30.23 in 10.0 mi Calm Calm - N/A   Clear
11:53 PM 46.4 °F - 42.8 °F 87% 30.23 in 10.0 mi Calm Calm - N/A   Clear